Back to catalog

FENGYUN 1C DEB

AlivePO
NORAD 30197·DEBRIS·🇨🇳 China

Launched May 10, 1999 from Taiyuan Satellite Launch Center

Loading…

Next Passes (next 24 hours)

TLE

FreshSource: Space-Track

Epoch: Sep 14, 2026, 07:15 UTC

1 30197U 99025VE  26257.30212730  .00001250  00000-0  41775-3 0  9990
2 30197  98.9515 198.8643 0057742 122.1716  32.0136 14.38337671 24478

Track FENGYUN 1C DEB in real time with AllMySat

Download on the App Store